Location: Boncourt
(49.6160°N, 3.9448°E)
Time: 14:34:59
(UTC+00:00)

Daily predictions for brighter satellites

Satellite Brightness Start Highest point End
(mag) Time Altitude Azimuth Time Altitude Azimuth Time Altitude Azimuth
Cosmos 2173 Rocket 4.4 19:39:10 10° SSE 19:44:55 45° E 19:50:47 10° NNE
Cosmos 1605 Rocket 4.4 19:39:22 10° SSW 19:45:31 72° WNW 19:51:49 10° N
Cosmos 1455 Rocket 4.4 19:44:26 10° SE 19:47:46 21° E 19:51:07 10° NE
Cosmos 1980 Rocket 2.9 19:45:33 10° NNW 19:51:00 43° NE 19:56:24 10° ESE
SL-08 R/B 3.9 19:47:09 10° NNE 19:51:45 40° E 19:56:14 10° SSE
Okean 1 Rocket 3.5 19:49:27 10° SSE 19:53:36 44° E 19:57:49 10° NNE
SL-24 R/B 4.4 19:49:04 10° NNE 19:53:44 78° WNW 19:58:03 10° SSW
Meteor 2-3 Rocket 3.8 19:51:10 10° N 19:56:49 72° ENE 20:02:26 10° SSE
Cosmos 2084 3.6 19:53:05 10° SW 19:57:13 76° NW 20:01:23 10° NE
CZ-4 R/B 2.1 19:56:11 10° S 19:59:42 47° W 20:03:13 10° NNW
Cosmos 1850 Rocket 4.3 19:56:01 10° NNW 20:01:07 55° ENE 20:06:11 10° SE
CZ-4B R/B 4.3 19:58:50 10° ESE 20:01:09 18° ENE 20:03:30 10° NNE
Cosmos 1782 4.2 19:59:15 10° SE 20:01:37 17° E 20:03:59 10° NE
ASTEX 1 3.9 20:01:05 10° S 20:06:00 66° W 20:10:57 10° N
SPOT 5 4.4 20:02:17 10° SSW 20:06:06 31° W 20:09:58 10° NNW
Cosmos 2056 Rocket 3.9 20:04:03 10° SSW 20:09:26 73° WNW 20:14:50 10° NNE
CZ-4B R/B 3.4 20:03:59 10° SSE 20:09:39 82° WSW 20:15:20 10° NNW
Cosmos 1833 Rocket 2.7 20:04:49 10° SSW 20:10:26 89° ESE 20:16:06 10° NNE
Cosmos 1110 Rocket 4.2 20:05:45 10° S 20:10:52 54° ESE 20:16:03 10° NNE
Cosmos 1802 Rocket 4.2 20:05:26 10° SSE 20:11:22 50° E 20:17:16 10° NNE
Cosmos 1624 Rocket 4.4 20:07:14 10° SSW 20:12:23 70° WNW 20:17:35 10° NNE
Terra 2.1 20:09:11 10° S 20:13:51 68° WSW 20:18:33 10° NNW
Gbstr 26 Del rocket 3.2 20:09:25 10° WNW 20:14:44 89° SSW 20:18:53 11° ESE
Cosmos 2360 Rocket 4.4 20:12:56 10° N 20:16:06 15° NNE 20:19:16 10° ENE
Sich 1 Rocket 3.5 20:12:07 10° S 20:16:25 66° E 20:20:45 10° NNE
SJ 16-02 4.0 20:17:31 10° WNW 20:19:59 15° W 20:22:27 10° SW
YAOGAN 11 4.4 20:17:08 10° NNE 20:21:25 48° E 20:25:43 10° S
CZ-2C R/B 4.1 20:23:39 12° E 20:24:56 15° ENE 20:26:39 10° NNE
USA 229 DEB 4.5 20:18:39 10° NW 20:26:00 59° WSW 20:34:05 10° SSE
USA 229 4.5 20:18:41 10° NW 20:26:04 60° WSW 20:34:07 10° SSE
Cosmos 1743 2.4 20:23:33 10° N 20:26:30 49° ENE 20:28:34 17° SSE
Meteor 1-27 4.4 20:25:22 10° S 20:30:52 53° E 20:36:19 10° NNE
Cosmos 44 Rocket 3.6 20:26:10 10° SSW 20:31:02 50° ESE 20:36:02 10° NE
ISS -2.7 20:29:12 10° SSW 20:31:59 25° SE 20:34:47 10° E
Cosmos 1459 Rocket 4.0 20:26:05 10° S 20:32:21 89° E 20:38:33 10° N
Cosmos 2100 Rocket 4.2 20:29:42 10° SSW 20:35:54 80° W 20:42:15 10° N
Ariane Rocket 3.6 20:32:21 15° SE 20:36:10 44° ENE 20:40:57 10° N
ADEOS 4.3 20:34:00 10° S 20:39:02 50° W 20:44:08 10° NNW
ATLAS 2AS CENTAUR R/B 3.4 20:32:57 10° WSW 20:39:48 60° NW 20:46:33 10° NE
Spot 2 Rocket 3.7 20:37:06 10° S 20:42:05 71° WSW 20:47:08 10° NNW
Cosmos 2369 4.1 20:36:32 10° NNW 20:42:09 54° NE 20:46:24 17° SE
BREEZE-M DEB (TANK) 3.8 20:39:16 10° W 20:42:12 43° SSW 20:47:10 16° SE
SL-4 R/B 3.3 20:39:16 10° W 20:42:31 26° SW 20:44:44 16° S
Cosmos 2322 Rocket 4.1 20:39:58 10° N 20:44:08 20° NE 20:48:18 10° E
Cosmos 2082 Rocket 2.7 20:41:19 10° S 20:46:35 40° ESE 20:51:52 10° NE
Okean 2 Rocket 4.0 20:42:23 10° SSW 20:46:44 51° WNW 20:51:08 10° N
USA 305 2.9 20:44:22 10° WNW 20:48:27 61° NNE 20:51:08 17° E
Cosmos 2151 4.2 20:47:27 10° NNE 20:50:59 26° ENE 20:52:53 19° ESE
USA 234 4.5 20:51:15 10° E 20:55:22 17° ESE 20:55:32 17° SE
Cosmos 2233 Rocket 4.0 20:51:19 10° S 20:57:28 69° E 21:03:36 10° NNE
Cosmos 1607 4.1 20:51:35 10° SSW 20:57:29 51° ESE 21:03:31 10° NE
Cosmos 1626 Rocket 4.1 20:53:41 10° N 20:57:50 43° ENE 21:00:05 24° SE
Cosmos 2228 2.8 20:55:36 17° S 20:58:43 66° E 21:02:49 10° NNE
SL-08 R/B 4.5 20:53:35 10° S 20:59:50 81° E 21:06:14 10° N
USA 186 2.8 20:58:27 16° SSW 21:00:09 32° W 21:02:39 10° NNW
Okean O Rocket 2.4 20:57:28 11° S 21:01:25 45° W 21:05:34 10° NNW
Tsikada Rocket 3.9 20:57:52 10° N 21:04:07 86° E 21:08:51 18° S
Cosmos 1697 Rocket 4.2 21:01:50 10° NW 21:06:38 30° WSW 21:11:24 10° SSW
CZ-4C R/B 1.8 21:04:02 10° SW 21:08:16 84° NW 21:13:47 10° NE
Cosmos 1725 Rocket 4.2 21:02:18 10° SSW 21:08:34 73° W 21:14:51 10° N
Cosmos 1992 Rocket 4.5 21:05:58 22° SSE 21:08:49 40° ESE 21:13:38 10° NE
Cosmos 1452 Rocket 3.6 21:03:58 10° SSW 21:09:12 79° WNW 21:14:28 10° NNE
COSMOS 2406 4.1 21:07:29 23° SE 21:09:47 30° ESE 21:14:43 10° NE
SL-16 R/B 3.0 21:05:58 10° NNW 21:11:21 41° NE 21:14:58 19° ESE
Okean-O 3.9 21:10:27 10° SSW 21:14:23 35° W 21:18:26 10° NNW
ATLAS 3B R/B 3.7 21:08:07 10° NW 21:15:16 42° WSW 21:20:47 16° S
CZ-4B R/B 3.4 21:19:07 23° S 21:22:01 73° WSW 21:26:50 10° NNW
Cosmos 2333 Rocket 2.9 21:18:48 10° NNW 21:24:16 45° NE 21:27:39 22° ESE
Cosmos 1455 Rocket 4.1 21:20:56 10° SSW 21:25:09 44° WNW 21:29:24 10° N
Cosmos 1302 Rocket 3.9 21:21:42 10° SSW 21:26:53 89° WNW 21:32:06 10° NNE
Cosmos 2098 Rocket 4.3 21:25:32 26° ESE 21:27:05 32° E 21:31:14 10° NNE
Meteor 1-25 Rocket 4.5 21:24:07 10° N 21:29:44 56° ENE 21:32:32 29° SE
CZ-4B R/B 3.7 21:33:11 23° SSW 21:34:41 35° W 21:37:49 10° NNW
Cosmos 1980 Rocket 3.2 21:29:42 10° NW 21:34:57 39° WSW 21:38:33 18° SSW
Cosmos 2061 Rocket 4.1 21:29:50 13° SSW 21:35:26 78° W 21:41:45 10° N
Cosmos 1782 3.9 21:32:57 12° SW 21:35:57 35° WNW 21:39:14 10° N
Cosmos 1544 Rocket 3.4 21:35:33 33° S 21:37:25 74° E 21:41:46 10° NNE
SPOT 3 Rocket 4.3 21:34:29 19° SSW 21:37:58 47° W 21:42:57 10° NNW
Cosmos 724 4.4 21:32:09 10° SW 21:38:11 79° NW 21:44:08 10° NE
NOSS 3-3 (A) 3.6 21:34:26 13° SSW 21:39:03 62° SE 21:45:08 10° NE
Cosmos 1933 3.1 21:44:19 49° SSE 21:45:06 64° E 21:48:53 10° NNE
Cosmos 2084 Rocket 3.6 21:45:06 10° NW 21:49:14 59° SW 21:50:19 43° S
Cosmos 1758 Rocket 3.8 21:47:37 10° NNW 21:51:56 62° W 21:53:42 34° SSW
Helios 1B rocket 2.9 21:51:51 33° E 21:52:17 34° ENE 21:55:31 10° N
CZ-2C R/B 3.5 21:55:17 27° WSW 21:55:31 27° W 21:57:59 10° NW
Cosmos 1464 Rocket 4.1 21:53:23 33° SSE 21:56:04 57° E 22:02:05 10° NNE
Cosmos 1513 Rocket 4.4 21:56:21 27° S 21:59:56 85° E 22:06:09 10° N
Gbstr 26 Del rocket 4.1 21:56:35 10° W 22:00:35 28° SW 22:00:52 27° SW
Cosmos 2360 Rocket 2.7 21:55:58 10° NNW 22:01:31 50° NE 22:04:14 28° ESE
Meteor 2-10 4.3 21:59:00 10° N 22:04:42 68° ENE 22:06:57 37° SSE
NOSS 3-3 (C) 3.6 22:02:52 18° SSW 22:06:56 78° SE 22:13:15 10° NE
ALOS 2 4.0 22:06:32 23° E 22:07:51 27° ENE 22:11:32 10° N
Cosmos 1825 Rocket 3.7 22:04:01 10° N 22:08:19 60° ENE 22:09:11 48° SE
ARIANE 5 R/B 3.8 22:07:11 27° E 22:08:26 32° ENE 22:12:24 10° N
ISS -3.8 22:05:09 10° WSW 22:08:14 74° W 22:08:14 74° W
Geosat 3.9 22:04:08 10° NNE 22:09:10 85° WNW 22:12:24 23° SW
Cosmos 1953 Rocket 4.3 22:05:50 10° N 22:09:56 37° ENE 22:10:47 34° E
Cosmos 1072 Rocket 4.4 22:08:18 33° S 22:11:17 79° E 22:17:36 10° NNE
USA 305 3.3 22:10:01 10° WNW 22:13:09 36° WSW 22:13:09 36° WSW
Ariane Rocket 4.4 22:12:25 18° SW 22:15:11 29° W 22:19:36 10° NW
BREEZE-M R/B 4.4 22:06:52 10° W 22:15:52 83° N 22:21:32 10° E
Cosmos 1602 Rocket 3.8 22:13:22 10° NNW 22:17:36 57° W 22:18:42 43° SSW
Cosmos 1092 Rocket 4.5 22:12:29 10° N 22:18:25 47° ENE 22:20:51 32° SE
Cosmos 2219 Rocket 3.0 22:13:37 10° NNW 22:19:02 44° NE 22:21:48 26° ESE
DEBRIS 4.2 22:15:06 10° W 22:19:05 90° SSE 22:34:16 10° E
CZ-2C R/B 4.4 22:15:49 10° NNE 22:19:54 35° E 22:20:05 35° ESE
NOSS 3-4 (A) 3.9 22:15:03 10° NW 22:21:39 76° NE 22:26:01 28° SE
NOSS 3-4 (C) 3.9 22:15:39 10° NW 22:22:16 76° NE 22:26:40 28° SE
Cosmos 1437 Rocket 3.3 22:21:47 39° WSW 22:22:31 46° WNW 22:26:00 10° N
Cosmos 540 Rocket 4.4 22:23:21 30° ESE 22:23:36 30° E 22:28:04 10° NE
Cosmos 1461 3.6 22:26:32 34° ENE 22:26:32 34° ENE 22:28:57 10° NE
Cosmos 2151 4.2 22:24:06 10° NNW 22:27:46 31° W 22:28:56 26° WSW
Cosmos 1428 Rocket 4.4 22:22:35 10° N 22:28:53 87° W 22:31:20 40° S
Cosmos 2322 Rocket 2.2 22:23:24 10° NNW 22:29:06 80° ENE 22:31:03 43° SE
Cosmos 2034 Rocket 4.0 22:27:37 39° SSE 22:30:03 69° E 22:36:23 10° NNE
Cosmos 2082 Rocket 3.4 22:25:13 10° WSW 22:30:38 42° NW 22:36:05 10° NNE
Cosmos 220 Rocket 3.6 22:32:36 75° S 22:32:53 82° ESE 22:36:59 10° NNE
Cosmos 1707 4.2 22:38:21 19° NE 22:38:21 19° NE 22:39:30 10° NNE
Meteor 1-5 Rocket 4.4 22:32:24 10° NNW 22:37:59 64° W 22:40:03 39° SSW
Cosmos 1536 3.6 22:34:44 10° N 22:38:06 35° ENE 22:38:06 35° ENE
USA 234 3.2 22:32:54 10° ENE 22:39:22 58° SE 22:42:49 28° SSW
COSMOS 2428 4.3 22:37:28 10° NNW 22:42:20 28° NE 22:46:33 13° E
Okean 1-7 Rocket 4.1 22:42:01 10° NNW 22:46:18 49° W 22:47:08 43° SW
Cosmos 1763 Rocket 3.7 22:45:39 48° SE 22:46:24 52° ESE 22:51:31 10° NNE
Cosmos-2242 3.1 22:47:28 54° E 22:47:28 54° E 22:51:31 10° NNE
Cosmos 1503 Rocket 3.9 22:42:36 10° NNW 22:47:50 88° WSW 22:49:02 55° SSE
Helios 1A 3.5 22:44:05 10° N 22:47:54 49° WNW 22:48:44 41° WSW
Cosmos 1777 Rocket 4.0 22:42:52 10° NNW 22:48:06 70° WSW 22:49:16 52° S
Cosmos 2278 4.0 22:42:32 10° NW 22:48:08 57° WSW 22:49:38 44° SSW
CZ-2C R/B 4.3 22:45:53 10° NNE 22:50:51 30° E 22:51:56 28° ESE
Cosmos 990 Rocket 4.0 22:46:02 10° NNW 22:51:12 72° ENE 22:52:30 50° SE
Cosmos 1805 4.5 22:48:26 10° NNW 22:50:59 26° W 22:50:59 26° W
Cosmos 1606 Rocket 4.0 22:52:45 44° WSW 22:53:42 55° WNW 22:57:59 10° N
COSMOS 2406 3.8 22:49:26 17° SW 22:53:47 54° NW 22:59:26 10° NNE
ARGOS Delta rocket 4.3 22:50:25 10° NNE 22:55:18 52° E 22:56:07 47° SE
SL-16 R/B 2.9 22:50:10 10° NW 22:55:26 40° WSW 22:56:47 35° SW
USA 290 3.7 22:56:48 31° NE 22:56:48 31° NE 22:58:40 10° NNE
CZ-4C R/B 4.2 22:53:14 10° WNW 22:57:22 27° NNW 23:02:31 10° NE
Cosmos 1354 Rocket 3.9 22:52:47 10° NNW 22:58:04 80° ENE 22:59:19 53° SE
Cosmos 1634 Rocket 4.0 22:57:50 45° SSE 22:59:40 65° E 23:05:48 10° NNE
Cosmos 1486 Rocket 4.4 22:54:44 10° NNW 22:59:48 50° WSW 23:00:50 43° SW
Cosmos 1766 3.6 22:58:47 10° N 23:01:17 50° N 23:01:17 50° N
Cosmos 2279 Rocket 4.4 23:01:48 39° SE 23:03:35 50° E 23:09:36 10° NNE
Cosmos 2098 Rocket 4.5 23:02:10 25° WSW 23:04:21 37° WNW 23:08:39 10° N
Cosmos 1470 3.8 23:01:41 10° N 23:04:12 30° NE 23:04:12 30° NE
SeaSat 1 3.5 23:03:53 25° ESE 23:06:11 40° NE 23:10:46 10° NNW
Cosmos 1726 Rocket 3.8 23:06:20 49° WSW 23:06:49 52° WNW 23:10:47 10° N
Cosmos 2333 Rocket 3.0 23:03:19 10° NW 23:08:28 36° WSW 23:09:39 33° SW
Cosmos 2221 3.7 23:09:57 29° E 23:09:57 29° E 23:13:27 10° NNE
Cosmos 1076 Rocket 4.1 23:07:14 10° NNW 23:11:18 42° W 23:11:38 41° WSW
Meteor 2-2 Rocket 4.2 23:10:20 52° S 23:11:48 80° E 23:17:33 10° NNE
Cosmos 1842 4.3 23:13:51 29° NE 23:13:51 29° NE 23:15:47 10° NNE
BREEZE-M DEB (TANK) 3.4 23:09:29 10° W 23:17:29 75° S 23:22:27 10° E
CZ-2C R/B 3.2 23:16:22 35° ESE 23:18:08 48° ENE 23:23:11 10° N
Cosmos 1833 4.1 23:17:41 53° S 23:19:04 77° ESE 23:24:44 10° NNE
Spot 4 4.1 23:23:21 50° SW 23:23:57 54° W 23:28:39 10° NNW
KORONAS-FOTON 4.2 23:25:14 52° NNE 23:25:14 52° NNE 23:27:54 10° N
Cosmos 2026 Rocket 4.4 23:18:58 10° NNW 23:25:09 54° W 23:27:17 38° SW
Helios 1B rocket 4.1 23:25:48 19° W 23:25:48 19° W 23:27:58 10° NW
SAR-Lupe-2 4.3 23:26:37 45° NW 23:26:37 45° NW 23:29:09 10° NNW
Cosmos 1975 3.2 23:24:56 10° N 23:28:17 48° ENE 23:28:17 48° ENE
Aureole 1 Rocket 3.7 23:24:54 10° NNW 23:30:12 89° W 23:32:03 48° SSE
Cosmos 2266 Rocket 4.4 23:26:21 10° N 23:32:16 53° ENE 23:34:28 36° SE
Cosmos 2322 4.1 23:27:13 10° NNW 23:32:52 59° ENE 23:35:16 33° ESE
Cosmos 1812 Rocket 4.3 23:34:01 40° E 23:34:11 40° E 23:38:19 10° NNE
Cosmos 2297 Rocket 3.9 23:33:58 17° ESE 23:34:45 18° E 23:38:22 10° ENE
Cosmos 44 3.6 23:30:53 10° NW 23:36:19 74° NE 23:38:07 42° ESE
Cosmos 1271 Rocket 3.2 23:38:07 48° NE 23:38:07 48° NE 23:40:44 10° NNE
Cosmos 372 Rocket 3.8 23:37:26 10° NNW 23:42:36 87° ENE 23:43:34 60° SSE
RESURS DK-1 3.2 23:39:37 10° NNW 23:43:26 41° NE 23:44:13 37° E
Cosmos 1937 Rocket 4.0 23:38:48 10° NNW 23:43:51 52° ENE 23:45:40 35° ESE
ALOS 2 3.3 23:43:55 39° WSW 23:44:02 39° W 23:48:10 10° NNW
ARIANE 5 R/B 3.7 23:44:33 32° W 23:44:42 32° W 23:48:43 10° NNW
Cosmos 2360 Rocket 3.1 23:40:19 10° NW 23:45:17 32° WSW 23:45:58 31° WSW
ISS-0.423:50:53E23:50:53E23:41:23W
Meteor 1-11 Rocket 3.9 23:42:02 10° N 23:47:45 64° ENE 23:49:31 42° SE
GP-B 3.0 23:44:34 10° N 23:48:57 71° E 23:49:14 68° ESE
Cosmos 2058 Rocket 3.8 23:48:53 39° W 23:49:29 42° WNW 23:53:38 10° N
Cosmos 468 Rocket 3.9 23:51:08 58° SSW 23:52:13 89° E 23:57:31 10° NNE
